ARIANE 2 DEB, 33558

Orbit data source: Space-Track

ARIANE 2 DEB, 33558 is space debris in HEO originally from a launch on Fri, 27 Jan 1989 UTC launched from the French Guiana (FRGUI). Debris objects in space refer to the collection of defunct objects orbiting the Earth. Examples of debris include non-operational satellites, rocket bodies, and fragments generated from explosions, collisions, or faulty payload assembly.

Loading next visibility...
Identifier
33558, 1989-006BA
Orbit
HEO
Country
Flag of FRFR
Related business
Manufacturer
EADS/LV
Mission
Spacecraft
Bus & Motor
Unknown
Mass
Unknown
Launch date (UTC)
1989-01-27 (37 years ago)
Launch vehicle
Unknown
Launch site
French Guiana (FRGUI)
Object type
Payload
Rocket body
Debris
Shape & HBR
Unknown shape, 0.2 m
Radar Cross Section
Medium (>0.1 m² and <1 m²)

Expand to show TLE details & history
Last TLE update: 1 week ago

TLE from 1 week ago
0 ARIANE 2 DEB
1 33558U 89006BA  26087.92930062 -.00000198  00000-0  00000-0 0  9990
2 33558  10.5561   1.5575 6938680 213.1679  72.4440  2.21804704 19476
Epoch: 2026-03-28T22:18Z
TLE epoch observation values (Epoch: 2026-03-28T22:18:11.573Z)
Latitude
0.00003°
Longitude
-159.38404°
Altitude
24,357.792 km
Speed
3.144 km/s
True Right ascension
00h 06m 01s
True Declination
0° 00' 00"
Sunlit
Object was in daylight at epoch
Visualization orbit readout
Latitude
Unknown
Longitude
Unknown
Altitude
Unknown
Speed
Unknown
Apparent Right ascension
Unknown
Apparent Declination
Unknown
Sunlit
N/A
Visualization observer readout
Local Sidereal Time
02:48:25
Azimuth
Unknown
Elevation
Unknown
Doppler factor
Unknown
Orbital elements
Apogee altitude
35,699.05 km
Perigee altitude
1,226.454 km
Semi-major axis
24,840.889 km
Eccentricity
0.69387
Inclination
10.5561°
RAAN
1.5575°
Arg. of periapsis
213.1679°
True anomaly
146.75297°
Mean anomaly
72.444°
Eccentric anomaly
109.83998°
Mean motion
0.55436 °/min
Orbital period
649.4 mins
BSTAR
0
Loading maneuver chart data...
Computing Atmospheric mass density...
Loading historical data...
Loading historical data...
Loading historical data...
Loading historical data...
Loading historical data...
Loading historical data...
Loading historical data...

Documentation

Showing up to 5 results
|